Starlink 5142

operational
NORAD ID: 53984 Int'l Des: 2022-125 Owner: SPXS Country: US Constellation: starlink
LEOCIRCULAR

About Starlink 5142

Description loading...

Live Position

Loading 3D Globe...

Upcoming Passes

Altitude History

Altitude vs Time

uPlot chart will show altitude changes over time

Two-Line Element Set

1 53984U 22125W 25348.92420172 -.00000102 00000-0 11699-4 0 9994
2 53984 53.2177 234.8027 0001456 98.1009 262.0148 15.08826816176669
Epoch: Dec 14, 2025 • Age: 10 hours

Current Status

Altitude 540.3 km
Velocity 7.59 km/s
Sub-Earth Point 4.48°N, 35.97°E
Launch Date Oct 5, 2022
Age 3.1 years
Type internet

Technical Details

Classification Payload
Mass 305.00 kg
Dry Mass 290.00 kg
Total Mass 305.00 kg
Length 0.20 m
Diameter 2.80 m
Span 9.00 m
Shape Box + pan
Manufacturer SPXS
Bus Type Starlink
Phase Status In Orbit
Owner/State SPXS/US

Large Constellations

Loading constellations...